START_TIME,STEP,MOV.,AL01,t_acc.,AL02,t_acc.,E37,t_acc.,H21,t_acc.
1979-07-26 18:00:33.610 ,1,1,0.,24.0,0.,24.0,5.,24.0,0.,24.0
1979-07-26 18:00:57.610 ,2,1,0.,24.0,0.,24.0,1.,24.0,0.,24.0
1979-07-26 18:01:21.610 ,6,1,0.,24.0,0.,24.0,1.,24.0,0.,24.0
1979-07-26 18:01:45.610 ,5,1,17.,24.0,0.,24.0,1.,24.0,0.,24.0
1979-07-26 18:02:09.610 ,1,1,0.,24.0,0.,24.0,2.,24.0,0.,24.0
1979-07-26 18:02:33.610 ,2,1,1.,24.0,0.,24.0,2.,24.0,0.,24.0
1979-07-26 18:02:57.610 ,6,1,0.,24.0,0.,24.0,0.,24.0,0.,24.0
1979-07-26 18:03:21.610 ,5,1,15.,24.0,0.,24.0,0.,24.0,0.,24.0
1979-07-26 18:03:45.610 ,1,1,0.,24.0,0.,24.0,1.,24.0,0.,24.0
1979-07-26 18:04:09.610 ,2,1,1.,24.0,0.,24.0,2.,24.0,0.,24.0
1979-07-26 18:04:33.610 ,6,1,0.,24.0,0.,24.0,1.,24.0,0.,24.0
1979-07-26 18:04:57.610 ,5,1,10.,24.0,0.,24.0,4.,24.0,0.,24.0
1979-07-26 18:05:21.610 ,1,1,0.,24.0,0.,24.0,2.,24.0,0.,24.0
1979-07-26 18:05:45.610 ,0,0,1.,24.0,1.,24.0,1.,24.0,0.,24.0
1979-07-26 18:06:09.610 ,0,0,0.,24.0,0.,24.0,2.,24.0,0.,24.0
1979-07-26 18:06:33.610 ,5,1,18.,24.0,0.,24.0,0.,24.0,0.,24.0
1979-07-26 18:06:57.610 ,5,0,0.,24.0,0.,24.0,3.,24.0,0.,24.0
1979-07-26 18:07:21.610 ,4,1,0.,24.0,0.,24.0,0.,24.0,0.,24.0
1979-07-26 18:07:45.610 ,4,0,0.,24.0,0.,24.0,3.,24.0,0.,24.0
1979-07-26 18:08:09.610 ,3,1,0.,24.0,0.,24.0,1.,24.0,0.,24.0
1979-07-26 18:08:33.610 ,3,0,0.,24.0,0.,24.0,4.,24.0,0.,24.0
1979-07-26 18:08:57.610 ,2,1,0.,24.0,0.,24.0,1.,24.0,0.,24.0
1979-07-26 18:09:21.610 ,2,0,0.,24.0,0.,24.0,3.,24.0,0.,24.0
1979-07-26 18:09:45.610 ,1,1,0.,24.0,0.,24.0,2.,24.0,0.,24.0
1979-07-26 18:10:09.610 ,1,0,1.,24.0,0.,24.0,4.,24.0,0.,24.0
1979-07-26 18:10:33.610 ,0,1,0.,24.0,0.,24.0,0.,24.0,0.,24.0
1979-07-26 18:10:57.610 ,0,0,2.,24.0,0.,24.0,3.,24.0,0.,24.0
1979-07-26 18:11:21.610 ,0,1,1.,24.0,0.,24.0,1.,24.0,0.,24.0
1979-07-26 18:11:45.610 ,0,0,4.,24.0,1.,24.0,1.,24.0,0.,24.0
1979-07-26 18:12:09.610 ,1,1,2.,24.0,0.,24.0,1.,24.0,0.,24.0
1979-07-26 18:12:33.610 ,1,0,0.,24.0,0.,24.0,2.,24.0,0.,24.0
1979-07-26 18:12:57.610 ,2,1,0.,24.0,0.,24.0,0.,24.0,0.,24.0
1979-07-26 18:13:21.610 ,2,0,0.,24.0,0.,24.0,2.,24.0,0.,24.0
1979-07-26 18:13:45.610 ,3,1,0.,24.0,0.,24.0,3.,24.0,0.,24.0
1979-07-26 18:14:09.610 ,3,0,0.,24.0,0.,24.0,1.,24.0,0.,24.0
1979-07-26 18:14:33.610 ,4,1,0.,24.0,0.,24.0,2.,24.0,0.,24.0
1979-07-26 18:14:57.610 ,4,0,0.,24.0,0.,24.0,2.,24.0,0.,24.0
1979-07-26 18:15:21.610 ,5,1,0.,24.0,0.,24.0,3.,24.0,0.,24.0
1979-07-26 18:15:45.610 ,5,0,0.,24.0,0.,24.0,1.,24.0,0.,24.0
1979-07-26 18:16:09.610 ,6,1,1.,24.0,0.,24.0,4.,24.0,0.,24.0
1979-07-26 18:16:33.610 ,6,0,0.,24.0,0.,24.0,0.,24.0,0.,24.0
1979-07-26 18:16:57.610 ,7,1,10.,24.0,0.,24.0,1.,24.0,0.,24.0
1979-07-26 18:17:21.610 ,7,0,36.,24.0,0.,24.0,2.,24.0,0.,24.0
1979-07-26 18:17:45.610 ,7,1,29.,24.0,0.,24.0,0.,24.0,0.,24.0
1979-07-26 18:18:09.610 ,7,0,33.,24.0,0.,24.0,0.,24.0,0.,24.0
1979-07-26 18:18:33.610 ,6,1,24.,24.0,0.,24.0,1.,24.0,0.,24.0
1979-07-26 18:18:57.610 ,6,0,0.,24.0,0.,24.0,1.,24.0,0.,24.0
1979-07-26 18:19:21.610 ,5,1,0.,24.0,0.,24.0,1.,24.0,0.,24.0
1979-07-26 18:19:45.610 ,5,0,0.,24.0,0.,24.0,2.,24.0,0.,24.0
1979-07-26 18:20:09.610 ,4,1,0.,24.0,0.,24.0,1.,24.0,0.,24.0
1979-07-26 18:20:33.610 ,4,0,0.,24.0,0.,24.0,1.,24.0,0.,24.0
1979-07-26 18:20:57.610 ,3,1,0.,24.0,0.,24.0,2.,24.0,0.,24.0
1979-07-26 18:21:21.610 ,3,0,0.,24.0,0.,24.0,4.,24.0,0.,24.0
1979-07-26 18:21:45.610 ,2,1,0.,24.0,0.,24.0,1.,24.0,0.,24.0
1979-07-26 18:22:09.610 ,2,0,0.,24.0,0.,24.0,2.,24.0,0.,24.0
1979-07-26 18:22:33.610 ,1,1,0.,24.0,0.,24.0,0.,24.0,0.,24.0
1979-07-26 18:22:57.610 ,1,0,0.,24.0,0.,24.0,0.,24.0,0.,24.0
1979-07-26 18:23:21.610 ,0,1,0.,24.0,0.,24.0,0.,24.0,0.,24.0
1979-07-26 18:23:45.610 ,0,0,1.,24.0,0.,24.0,0.,24.0,0.,24.0
1979-07-26 18:24:09.610 ,0,1,1.,24.0,0.,24.0,4.,24.0,0.,24.0
1979-07-26 18:24:33.610 ,0,0,1.,24.0,0.,24.0,2.,24.0,0.,24.0
1979-07-26 18:24:57.610 ,1,1,0.,24.0,0.,24.0,0.,24.0,0.,24.0
1979-07-26 18:25:21.610 ,1,0,0.,24.0,0.,24.0,2.,24.0,0.,24.0
1979-07-26 18:25:45.610 ,2,1,0.,24.0,0.,24.0,0.,24.0,0.,24.0
1979-07-26 18:26:09.610 ,2,0,0.,24.0,0.,24.0,1.,24.0,0.,24.0
1979-07-26 18:26:33.610 ,3,1,0.,24.0,0.,24.0,4.,24.0,0.,24.0
1979-07-26 18:26:57.610 ,3,0,0.,24.0,0.,24.0,3.,24.0,0.,24.0
1979-07-26 18:27:21.610 ,4,1,0.,24.0,0.,24.0,2.,24.0,0.,24.0
1979-07-26 18:27:45.610 ,4,0,0.,24.0,0.,24.0,2.,24.0,0.,24.0
1979-07-26 18:28:09.610 ,5,1,0.,24.0,0.,24.0,3.,24.0,0.,24.0
1979-07-26 18:28:33.610 ,5,0,0.,24.0,0.,24.0,4.,24.0,0.,24.0
1979-07-26 18:28:57.610 ,6,1,0.,24.0,0.,24.0,4.,24.0,0.,24.0
1979-07-26 18:29:21.610 ,6,0,0.,24.0,0.,24.0,3.,24.0,0.,24.0
1979-07-26 18:29:45.610 ,7,1,6.,24.0,0.,24.0,2.,24.0,0.,24.0
1979-07-26 18:30:09.610 ,7,0,35.,24.0,0.,24.0,4.,24.0,0.,24.0
1979-07-26 18:30:33.610 ,7,1,36.,24.0,0.,24.0,0.,24.0,0.,24.0
1979-07-26 18:30:57.610 ,7,0,32.,24.0,0.,24.0,3.,24.0,0.,24.0
1979-07-26 18:31:21.610 ,6,1,22.,24.0,0.,24.0,2.,24.0,0.,24.0
1979-07-26 18:31:45.610 ,6,0,0.,24.0,0.,24.0,1.,24.0,0.,24.0
1979-07-26 18:32:09.610 ,5,1,0.,24.0,0.,24.0,2.,24.0,0.,24.0
1979-07-26 18:32:33.610 ,5,0,0.,24.0,1.,24.0,2.,24.0,0.,24.0
1979-07-26 18:32:57.610 ,4,1,0.,24.0,0.,24.0,1.,24.0,0.,24.0
1979-07-26 18:33:21.610 ,4,0,0.,24.0,0.,24.0,7.,24.0,0.,24.0
1979-07-26 18:33:45.610 ,3,1,0.,24.0,0.,24.0,5.,24.0,0.,24.0
1979-07-26 18:34:09.610 ,3,0,0.,24.0,0.,24.0,4.,24.0,0.,24.0
1979-07-26 18:34:33.610 ,2,1,0.,24.0,0.,24.0,0.,24.0,0.,24.0
1979-07-26 18:34:57.610 ,2,0,0.,24.0,0.,24.0,3.,24.0,0.,24.0
1979-07-26 18:35:21.610 ,1,1,0.,24.0,0.,24.0,2.,24.0,0.,24.0
1979-07-26 18:35:45.610 ,1,0,0.,24.0,0.,24.0,2.,24.0,0.,24.0
1979-07-26 18:36:09.610 ,0,1,0.,24.0,0.,24.0,2.,24.0,0.,24.0
1979-07-26 18:36:33.610 ,0,0,0.,24.0,0.,24.0,1.,24.0,0.,24.0
1979-07-26 18:36:57.610 ,0,1,1.,24.0,0.,24.0,1.,24.0,0.,24.0
1979-07-26 18:37:21.610 ,0,0,2.,24.0,0.,24.0,2.,24.0,0.,24.0
1979-07-26 18:37:45.610 ,1,1,0.,24.0,0.,24.0,3.,24.0,0.,24.0
1979-07-26 18:38:09.610 ,1,0,1.,24.0,0.,24.0,1.,24.0,0.,24.0
1979-07-26 18:38:33.610 ,2,1,1.,24.0,0.,24.0,5.,24.0,0.,24.0
1979-07-26 18:38:57.610 ,2,0,0.,24.0,0.,24.0,3.,24.0,0.,24.0
1979-07-26 18:39:21.610 ,3,1,0.,24.0,0.,24.0,3.,24.0,0.,24.0
1979-07-26 18:39:45.610 ,3,0,0.,24.0,0.,24.0,3.,24.0,0.,24.0
1979-07-26 18:40:09.610 ,4,1,0.,24.0,0.,24.0,3.,24.0,0.,24.0
1979-07-26 18:40:33.610 ,4,0,0.,24.0,0.,24.0,2.,24.0,0.,24.0
1979-07-26 18:40:57.610 ,5,1,0.,24.0,0.,24.0,0.,24.0,0.,24.0
1979-07-26 18:41:21.610 ,5,0,0.,24.0,0.,24.0,3.,24.0,0.,24.0
1979-07-26 18:41:45.610 ,6,1,0.,24.0,0.,24.0,2.,24.0,0.,24.0
1979-07-26 18:42:09.610 ,6,0,0.,24.0,0.,24.0,2.,24.0,0.,24.0
1979-07-26 18:42:33.610 ,7,0,7.,24.0,0.,24.0,3.,24.0,0.,24.0
1979-07-26 18:42:57.610 ,7,0,29.,24.0,0.,24.0,2.,24.0,0.,24.0
1979-07-26 18:43:21.610 ,5,1,18.,24.0,1.,24.0,0.,24.0,0.,24.0
1979-07-26 18:43:45.610 ,1,1,0.,24.0,1.,24.0,0.,24.0,0.,24.0
1979-07-26 18:44:09.610 ,2,1,1.,24.0,0.,24.0,3.,24.0,0.,24.0
1979-07-26 18:44:33.610 ,6,1,0.,24.0,0.,24.0,2.,24.0,0.,24.0
1979-07-26 18:44:57.610 ,5,1,13.,24.0,0.,24.0,1.,24.0,0.,24.0
1979-07-26 18:45:21.610 ,1,1,0.,24.0,0.,24.0,1.,24.0,0.,24.0
1979-07-26 18:45:45.610 ,2,1,0.,24.0,0.,24.0,3.,24.0,0.,24.0
1979-07-26 18:46:09.610 ,6,1,1.,24.0,0.,24.0,1.,24.0,0.,24.0
1979-07-26 18:46:33.610 ,5,1,15.,24.0,0.,24.0,0.,24.0,0.,24.0
1979-07-26 18:46:57.610 ,1,1,0.,24.0,1.,24.0,2.,24.0,0.,24.0
1979-07-26 18:47:21.610 ,2,1,0.,24.0,0.,24.0,2.,24.0,0.,24.0
1979-07-26 18:47:45.610 ,6,1,0.,24.0,0.,24.0,1.,24.0,0.,24.0
1979-07-26 18:48:09.610 ,5,1,18.,24.0,0.,24.0,0.,24.0,0.,24.0
1979-07-26 18:48:33.610 ,0,0,0.,24.0,0.,24.0,2.,24.0,0.,24.0
1979-07-26 18:48:57.610 ,0,0,2240.,24.0,3670016.,24.0,67584.,24.0,1280.,24.0
1979-07-26 18:49:21.610 ,0,0,,0,,0,,0,,0
1979-07-26 18:50:16.810 ,0,0,1.,24.0,0.,24.0,4.,24.0,0.,24.0
1979-07-26 18:50:33.610 ,2,1,1.,24.0,0.,24.0,1.,24.0,0.,24.0
1979-07-26 18:50:57.610 ,6,1,0.,24.0,0.,24.0,3.,24.0,0.,24.0
1979-07-26 18:51:21.610 ,5,1,9.,24.0,0.,24.0,0.,24.0,0.,24.0
1979-07-26 18:51:45.610 ,1,1,0.,24.0,0.,24.0,2.,24.0,0.,24.0
1979-07-26 18:52:09.610 ,2,1,0.,24.0,0.,24.0,2.,24.0,0.,24.0
1979-07-26 18:52:33.610 ,6,1,0.,24.0,0.,24.0,3.,24.0,0.,24.0
1979-07-26 18:52:57.610 ,5,1,14.,24.0,0.,24.0,1.,24.0,0.,24.0
1979-07-26 18:53:21.610 ,1,1,0.,24.0,0.,24.0,3.,24.0,0.,24.0
1979-07-26 18:53:45.610 ,0,0,2.,24.0,0.,24.0,1.,24.0,0.,24.0
1979-07-26 18:54:09.610 ,0,0,0.,24.0,0.,24.0,0.,24.0,0.,24.0
1979-07-26 18:54:33.610 ,5,1,20.,24.0,0.,24.0,3.,24.0,0.,24.0
1979-07-26 18:54:57.610 ,5,0,0.,24.0,0.,24.0,2.,24.0,0.,24.0
1979-07-26 18:55:21.610 ,4,1,0.,24.0,0.,24.0,3.,24.0,0.,24.0
1979-07-26 18:55:45.610 ,4,0,0.,24.0,0.,24.0,1.,24.0,0.,24.0
1979-07-26 18:56:09.610 ,3,1,0.,24.0,0.,24.0,5.,24.0,0.,24.0
1979-07-26 18:56:33.610 ,3,0,1.,24.0,0.,24.0,4.,24.0,0.,24.0
1979-07-26 18:56:57.610 ,2,1,0.,24.0,0.,24.0,1.,24.0,0.,24.0
1979-07-26 18:57:21.610 ,2,0,0.,24.0,0.,24.0,1.,24.0,0.,24.0
1979-07-26 18:57:45.610 ,1,1,0.,24.0,0.,24.0,2.,24.0,0.,24.0
1979-07-26 18:58:09.610 ,1,0,0.,24.0,0.,24.0,6.,24.0,0.,24.0
1979-07-26 18:58:33.610 ,0,1,1.,24.0,0.,24.0,1.,24.0,0.,24.0
1979-07-26 18:58:57.610 ,0,0,1.,24.0,0.,24.0,0.,24.0,0.,24.0
1979-07-26 18:59:21.610 ,0,1,2.,24.0,0.,24.0,4.,24.0,0.,24.0
1979-07-26 18:59:45.610 ,0,0,2.,24.0,0.,24.0,3.,24.0,0.,24.0
1979-07-26 19:00:09.610 ,1,1,0.,24.0,0.,24.0,1.,24.0,0.,24.0
1979-07-26 19:00:33.610 ,1,0,0.,24.0,0.,24.0,1.,24.0,0.,24.0
1979-07-26 19:00:57.610 ,2,1,1.,24.0,0.,24.0,0.,24.0,0.,24.0
1979-07-26 19:01:21.610 ,2,0,0.,24.0,0.,24.0,3.,24.0,0.,24.0
1979-07-26 19:01:45.610 ,3,1,0.,24.0,0.,24.0,0.,24.0,0.,24.0
1979-07-26 19:02:09.610 ,3,0,0.,24.0,0.,24.0,2.,24.0,0.,24.0
1979-07-26 19:02:33.610 ,4,1,0.,24.0,1.,24.0,2.,24.0,0.,24.0
1979-07-26 19:02:57.610 ,4,0,0.,24.0,0.,24.0,5.,24.0,0.,24.0
1979-07-26 19:03:21.610 ,5,1,0.,24.0,0.,24.0,2.,24.0,0.,24.0
1979-07-26 19:03:45.610 ,5,0,0.,24.0,0.,24.0,0.,24.0,0.,24.0
1979-07-26 19:04:09.610 ,6,1,0.,24.0,0.,24.0,2.,24.0,0.,24.0
1979-07-26 19:04:33.610 ,6,0,0.,24.0,0.,24.0,1.,24.0,0.,24.0
1979-07-26 19:04:57.610 ,7,1,4.,24.0,0.,24.0,3.,24.0,0.,24.0
1979-07-26 19:05:21.610 ,7,0,18.,24.0,0.,24.0,3.,24.0,0.,24.0
1979-07-26 19:05:45.610 ,7,1,27.,24.0,0.,24.0,2.,24.0,0.,24.0
1979-07-26 19:06:09.610 ,7,0,30.,24.0,0.,24.0,3.,24.0,0.,24.0
1979-07-26 19:06:33.610 ,6,1,22.,24.0,0.,24.0,2.,24.0,0.,24.0
1979-07-26 19:06:57.610 ,6,0,0.,24.0,2.,24.0,2.,24.0,0.,24.0
1979-07-26 19:07:21.610 ,5,1,0.,24.0,0.,24.0,2.,24.0,0.,24.0
1979-07-26 19:07:45.610 ,5,0,0.,24.0,0.,24.0,2.,24.0,0.,24.0
1979-07-26 19:08:09.610 ,4,1,0.,24.0,0.,24.0,1.,24.0,0.,24.0
1979-07-26 19:08:33.610 ,4,0,0.,24.0,0.,24.0,1.,24.0,0.,24.0
1979-07-26 19:08:57.610 ,3,1,0.,24.0,0.,24.0,3.,24.0,0.,24.0
1979-07-26 19:09:21.610 ,3,0,0.,24.0,0.,24.0,6.,24.0,0.,24.0
1979-07-26 19:09:45.610 ,2,1,0.,24.0,0.,24.0,2.,24.0,0.,24.0
1979-07-26 19:10:09.610 ,2,0,0.,24.0,0.,24.0,2.,24.0,0.,24.0
1979-07-26 19:10:33.610 ,1,1,0.,24.0,0.,24.0,1.,24.0,0.,24.0
1979-07-26 19:10:57.610 ,1,0,1.,24.0,0.,24.0,1.,24.0,0.,24.0
1979-07-26 19:11:21.610 ,0,1,0.,24.0,1.,24.0,3.,24.0,0.,24.0
1979-07-26 19:11:45.610 ,0,0,0.,24.0,0.,24.0,0.,24.0,0.,24.0
1979-07-26 19:12:09.610 ,0,1,1.,24.0,0.,24.0,0.,24.0,0.,24.0
1979-07-26 19:12:33.610 ,0,0,0.,24.0,0.,24.0,4.,24.0,0.,24.0
1979-07-26 19:12:57.610 ,1,1,1.,24.0,0.,24.0,4.,24.0,0.,24.0
1979-07-26 19:13:21.610 ,1,0,2.,24.0,0.,24.0,2.,24.0,0.,24.0
1979-07-26 19:13:45.610 ,2,1,0.,24.0,0.,24.0,2.,24.0,0.,24.0
1979-07-26 19:14:09.610 ,2,0,0.,24.0,0.,24.0,2.,24.0,0.,24.0
1979-07-26 19:14:33.610 ,3,1,1.,24.0,0.,24.0,1.,24.0,0.,24.0
1979-07-26 19:14:57.610 ,3,0,0.,24.0,0.,24.0,2.,24.0,0.,24.0
1979-07-26 19:15:21.610 ,4,1,0.,24.0,0.,24.0,4.,24.0,0.,24.0
1979-07-26 19:15:45.610 ,4,0,0.,24.0,0.,24.0,1.,24.0,0.,24.0
1979-07-26 19:16:09.610 ,5,1,0.,24.0,0.,24.0,0.,24.0,0.,24.0
1979-07-26 19:16:33.610 ,5,0,0.,24.0,0.,24.0,5.,24.0,0.,24.0
1979-07-26 19:16:57.610 ,6,1,0.,24.0,0.,24.0,2.,24.0,0.,24.0
1979-07-26 19:17:21.610 ,6,0,0.,24.0,0.,24.0,1.,24.0,0.,24.0
1979-07-26 19:17:45.610 ,7,1,7.,24.0,0.,24.0,2.,24.0,0.,24.0
1979-07-26 19:18:09.610 ,7,0,36.,24.0,0.,24.0,2.,24.0,0.,24.0
1979-07-26 19:18:33.610 ,7,1,44.,24.0,1.,24.0,1.,24.0,0.,24.0
1979-07-26 19:18:57.610 ,7,0,31.,24.0,1.,24.0,3.,24.0,0.,24.0
1979-07-26 19:19:21.610 ,6,1,32.,24.0,0.,24.0,2.,24.0,0.,24.0
1979-07-26 19:19:45.610 ,6,0,0.,24.0,0.,24.0,1.,24.0,0.,24.0
1979-07-26 19:20:09.610 ,5,1,0.,24.0,0.,24.0,3.,24.0,0.,24.0
1979-07-26 19:20:33.610 ,5,0,0.,24.0,0.,24.0,6.,24.0,0.,24.0
1979-07-26 19:20:57.610 ,4,1,0.,24.0,0.,24.0,1.,24.0,0.,24.0
1979-07-26 19:21:21.610 ,4,0,0.,24.0,0.,24.0,1.,24.0,0.,24.0
1979-07-26 19:21:45.610 ,3,1,0.,24.0,0.,24.0,5.,24.0,0.,24.0
1979-07-26 19:22:09.610 ,3,0,0.,24.0,0.,24.0,2.,24.0,0.,24.0
1979-07-26 19:22:33.610 ,2,1,0.,24.0,0.,24.0,1.,24.0,0.,24.0
1979-07-26 19:22:57.610 ,2,0,0.,24.0,0.,24.0,0.,24.0,0.,24.0
1979-07-26 19:23:21.610 ,1,1,0.,24.0,0.,24.0,1.,24.0,0.,24.0
1979-07-26 19:23:45.610 ,1,0,0.,24.0,0.,24.0,2.,24.0,0.,24.0
1979-07-26 19:24:09.610 ,0,1,1.,24.0,0.,24.0,1.,24.0,0.,24.0
1979-07-26 19:24:33.610 ,0,0,0.,24.0,0.,24.0,1.,24.0,0.,24.0
1979-07-26 19:24:57.610 ,0,1,0.,24.0,0.,24.0,0.,24.0,0.,24.0
1979-07-26 19:25:21.610 ,0,0,0.,24.0,0.,24.0,1.,24.0,0.,24.0
1979-07-26 19:25:45.610 ,1,1,0.,24.0,0.,24.0,1.,24.0,0.,24.0
1979-07-26 19:26:09.610 ,1,0,0.,24.0,0.,24.0,0.,24.0,0.,24.0
1979-07-26 19:26:33.610 ,2,1,1.,24.0,0.,24.0,1.,24.0,0.,24.0
1979-07-26 19:26:57.610 ,2,0,0.,24.0,0.,24.0,4.,24.0,0.,24.0
1979-07-26 19:27:21.610 ,3,1,0.,24.0,0.,24.0,2.,24.0,0.,24.0
1979-07-26 19:27:45.610 ,3,0,1.,24.0,0.,24.0,1.,24.0,0.,24.0
1979-07-26 19:28:09.610 ,4,1,0.,24.0,0.,24.0,1.,24.0,0.,24.0
1979-07-26 19:28:33.610 ,4,0,0.,24.0,0.,24.0,0.,24.0,0.,24.0
1979-07-26 19:28:57.610 ,5,1,0.,24.0,0.,24.0,2.,24.0,0.,24.0
1979-07-26 19:29:21.610 ,5,0,0.,24.0,0.,24.0,4.,24.0,0.,24.0
1979-07-26 19:29:45.610 ,6,1,0.,24.0,0.,24.0,0.,24.0,0.,24.0
1979-07-26 19:30:09.610 ,6,0,0.,24.0,0.,24.0,0.,24.0,0.,24.0
1979-07-26 19:30:33.610 ,7,0,5.,24.0,0.,24.0,1.,24.0,0.,24.0
1979-07-26 19:30:57.610 ,7,0,34.,24.0,0.,24.0,0.,24.0,0.,24.0
1979-07-26 19:31:21.610 ,5,1,17.,24.0,0.,24.0,3.,24.0,0.,24.0
1979-07-26 19:31:45.610 ,1,1,0.,24.0,0.,24.0,0.,24.0,0.,24.0
1979-07-26 19:32:09.610 ,2,1,1.,24.0,1.,24.0,2.,24.0,0.,24.0
1979-07-26 19:32:33.610 ,6,1,0.,24.0,0.,24.0,0.,24.0,0.,24.0
1979-07-26 19:32:57.610 ,5,1,19.,24.0,0.,24.0,2.,24.0,0.,24.0
1979-07-26 19:33:21.610 ,1,1,1.,24.0,0.,24.0,1.,24.0,0.,24.0
1979-07-26 19:33:45.610 ,2,1,0.,24.0,1.,24.0,1.,24.0,0.,24.0
1979-07-26 19:34:09.610 ,6,1,0.,24.0,0.,24.0,2.,24.0,0.,24.0
1979-07-26 19:34:33.610 ,5,1,15.,24.0,0.,24.0,1.,24.0,0.,24.0
1979-07-26 19:34:57.610 ,1,1,0.,24.0,1.,24.0,2.,24.0,0.,24.0
1979-07-26 19:35:21.610 ,2,1,0.,24.0,0.,24.0,1.,24.0,0.,24.0
1979-07-26 19:35:45.610 ,6,1,0.,24.0,0.,24.0,0.,24.0,0.,24.0
1979-07-26 19:36:09.610 ,5,1,14.,24.0,0.,24.0,1.,24.0,0.,24.0
1979-07-26 19:36:33.610 ,1,1,0.,24.0,0.,24.0,1.,24.0,0.,24.0
1979-07-26 19:36:57.610 ,2,1,0.,24.0,1.,24.0,0.,24.0,0.,24.0
1979-07-26 19:37:21.610 ,6,1,0.,24.0,0.,24.0,0.,24.0,0.,24.0
1979-07-26 19:37:45.610 ,5,1,10.,24.0,0.,24.0,0.,24.0,0.,24.0
1979-07-26 19:38:09.610 ,1,1,0.,24.0,0.,24.0,0.,24.0,0.,24.0
1979-07-26 19:38:33.610 ,2,1,0.,24.0,0.,24.0,1.,24.0,0.,24.0
1979-07-26 19:38:57.610 ,6,1,0.,24.0,0.,24.0,3.,24.0,0.,24.0
1979-07-26 19:39:21.610 ,5,1,16.,24.0,0.,24.0,1.,24.0,0.,24.0
1979-07-26 19:39:45.610 ,1,1,0.,24.0,0.,24.0,0.,24.0,0.,24.0
1979-07-26 19:40:09.610 ,2,1,0.,24.0,0.,24.0,2.,24.0,0.,24.0
1979-07-26 19:40:33.610 ,6,1,0.,24.0,0.,24.0,1.,24.0,0.,24.0
1979-07-26 19:40:57.610 ,5,1,24.,24.0,0.,24.0,2.,24.0,0.,24.0
1979-07-26 19:41:21.610 ,1,1,0.,24.0,0.,24.0,1.,24.0,0.,24.0
1979-07-26 19:41:45.610 ,0,0,0.,24.0,0.,24.0,1.,24.0,0.,24.0
1979-07-26 19:42:09.610 ,0,0,0.,24.0,0.,24.0,2.,24.0,0.,24.0
1979-07-26 19:42:33.610 ,5,1,13.,24.0,0.,24.0,1.,24.0,0.,24.0
1979-07-26 19:42:57.610 ,5,0,0.,24.0,0.,24.0,2.,24.0,0.,24.0
1979-07-26 19:43:21.610 ,4,1,0.,24.0,0.,24.0,2.,24.0,0.,24.0
1979-07-26 19:43:45.610 ,4,0,0.,24.0,0.,24.0,2.,24.0,0.,24.0
1979-07-26 19:44:09.610 ,3,1,0.,24.0,0.,24.0,0.,24.0,0.,24.0
1979-07-26 19:44:33.610 ,3,0,0.,24.0,0.,24.0,4.,24.0,0.,24.0
1979-07-26 19:44:57.610 ,2,1,0.,24.0,0.,24.0,1.,24.0,0.,24.0
1979-07-26 19:45:21.610 ,2,0,0.,24.0,0.,24.0,0.,24.0,0.,24.0
1979-07-26 19:45:45.610 ,1,1,0.,24.0,0.,24.0,2.,24.0,0.,24.0
1979-07-26 19:46:09.610 ,1,0,1.,24.0,0.,24.0,0.,24.0,0.,24.0
1979-07-26 19:46:33.610 ,0,1,0.,24.0,0.,24.0,1.,24.0,0.,24.0
1979-07-26 19:46:57.610 ,0,0,0.,24.0,0.,24.0,1.,24.0,0.,24.0
1979-07-26 19:47:21.610 ,0,1,0.,24.0,0.,24.0,1.,24.0,0.,24.0
1979-07-26 19:47:45.610 ,0,0,0.,24.0,0.,24.0,1.,24.0,0.,24.0
1979-07-26 19:48:09.610 ,1,1,0.,24.0,0.,24.0,0.,24.0,0.,24.0
1979-07-26 19:48:33.610 ,1,0,1.,24.0,0.,24.0,0.,24.0,0.,24.0
1979-07-26 19:48:57.610 ,2,1,0.,24.0,0.,24.0,2.,24.0,0.,24.0
1979-07-26 19:49:21.610 ,2,0,0.,24.0,0.,24.0,1.,24.0,0.,24.0
1979-07-26 19:49:45.610 ,3,1,0.,24.0,0.,24.0,1.,24.0,0.,24.0
1979-07-26 19:50:09.610 ,3,0,0.,24.0,0.,24.0,0.,24.0,0.,24.0
1979-07-26 19:50:33.610 ,4,1,0.,24.0,0.,24.0,3.,24.0,0.,24.0
1979-07-26 19:50:57.610 ,4,0,0.,24.0,0.,24.0,0.,24.0,0.,24.0
1979-07-26 19:51:21.610 ,5,1,0.,24.0,0.,24.0,2.,24.0,0.,24.0
1979-07-26 19:51:45.610 ,5,0,0.,24.0,0.,24.0,2.,24.0,0.,24.0
1979-07-26 19:52:09.610 ,6,1,0.,24.0,0.,24.0,0.,24.0,0.,24.0
1979-07-26 19:52:33.610 ,6,0,0.,24.0,0.,24.0,1.,24.0,0.,24.0
1979-07-26 19:52:57.610 ,7,1,7.,24.0,0.,24.0,1.,24.0,0.,24.0
1979-07-26 19:53:21.610 ,7,0,32.,24.0,0.,24.0,1.,24.0,0.,24.0
1979-07-26 19:53:45.610 ,7,1,26.,24.0,0.,24.0,2.,24.0,0.,24.0
1979-07-26 19:54:09.610 ,7,0,34.,24.0,1.,24.0,0.,24.0,0.,24.0
1979-07-26 19:54:33.610 ,6,1,32.,24.0,0.,24.0,1.,24.0,0.,24.0
1979-07-26 19:54:57.610 ,6,0,0.,24.0,0.,24.0,1.,24.0,0.,24.0
1979-07-26 19:55:21.610 ,5,1,0.,24.0,0.,24.0,0.,24.0,0.,24.0
1979-07-26 19:55:45.610 ,5,0,0.,24.0,0.,24.0,3.,24.0,0.,24.0
1979-07-26 19:56:09.610 ,4,1,0.,24.0,0.,24.0,1.,24.0,0.,24.0
1979-07-26 19:56:33.610 ,4,0,0.,24.0,0.,24.0,1.,24.0,0.,24.0
1979-07-26 19:56:57.610 ,3,1,0.,24.0,0.,24.0,0.,24.0,0.,24.0
1979-07-26 19:57:21.610 ,3,0,0.,24.0,0.,24.0,0.,24.0,0.,24.0
1979-07-26 19:57:45.610 ,2,1,0.,24.0,0.,24.0,2.,24.0,0.,24.0
1979-07-26 19:58:09.610 ,2,0,0.,24.0,1.,24.0,0.,24.0,0.,24.0
1979-07-26 19:58:33.610 ,1,1,0.,24.0,0.,24.0,0.,24.0,0.,24.0
1979-07-26 19:58:57.610 ,1,0,2.,24.0,0.,24.0,3.,24.0,0.,24.0
1979-07-26 19:59:21.610 ,0,1,0.,24.0,0.,24.0,0.,24.0,0.,24.0
1979-07-26 19:59:45.610 ,0,0,0.,24.0,0.,24.0,1.,24.0,0.,24.0
1979-07-26 20:00:09.610 ,0,1,1.,24.0,0.,24.0,0.,24.0,0.,24.0
1979-07-26 20:00:33.610 ,0,0,0.,24.0,0.,24.0,0.,24.0,0.,24.0
1979-07-26 20:00:57.610 ,1,1,0.,24.0,0.,24.0,0.,24.0,0.,24.0
1979-07-26 20:01:21.610 ,1,0,0.,24.0,0.,24.0,0.,24.0,0.,24.0
1979-07-26 20:01:45.610 ,2,1,0.,24.0,1.,24.0,1.,24.0,0.,24.0
1979-07-26 20:02:09.610 ,2,0,0.,24.0,0.,24.0,0.,24.0,0.,24.0
1979-07-26 20:02:33.610 ,3,1,0.,24.0,0.,24.0,0.,24.0,0.,24.0
1979-07-26 20:02:57.610 ,3,0,0.,24.0,0.,24.0,1.,24.0,0.,24.0
1979-07-26 20:03:21.610 ,4,1,0.,24.0,0.,24.0,1.,24.0,0.,24.0
1979-07-26 20:03:45.610 ,4,0,0.,24.0,0.,24.0,1.,24.0,0.,24.0
1979-07-26 20:04:09.610 ,5,1,0.,24.0,0.,24.0,0.,24.0,0.,24.0
1979-07-26 20:04:33.610 ,5,0,0.,24.0,0.,24.0,1.,24.0,0.,24.0
1979-07-26 20:04:57.610 ,6,1,0.,24.0,0.,24.0,1.,24.0,0.,24.0
1979-07-26 20:05:21.610 ,6,0,0.,24.0,0.,24.0,0.,24.0,0.,24.0
1979-07-26 20:05:45.610 ,7,1,10.,24.0,0.,24.0,0.,24.0,0.,24.0
1979-07-26 20:06:09.610 ,7,0,42.,24.0,0.,24.0,1.,24.0,0.,24.0
1979-07-26 20:06:33.610 ,7,1,37.,24.0,0.,24.0,1.,24.0,0.,24.0
1979-07-26 20:06:57.610 ,7,0,33.,24.0,0.,24.0,1.,24.0,0.,24.0
1979-07-26 20:07:21.610 ,6,1,26.,24.0,0.,24.0,1.,24.0,0.,24.0
1979-07-26 20:07:45.610 ,6,0,0.,24.0,0.,24.0,1.,24.0,0.,24.0
1979-07-26 20:08:09.610 ,5,1,1.,24.0,0.,24.0,1.,24.0,0.,24.0
1979-07-26 20:08:33.610 ,5,0,0.,24.0,0.,24.0,2.,24.0,0.,24.0
1979-07-26 20:08:57.610 ,4,1,0.,24.0,0.,24.0,0.,24.0,0.,24.0
1979-07-26 20:09:21.610 ,4,0,0.,24.0,0.,24.0,0.,24.0,0.,24.0
1979-07-26 20:09:45.610 ,3,1,0.,24.0,0.,24.0,0.,24.0,0.,24.0
1979-07-26 20:10:09.610 ,3,0,0.,24.0,0.,24.0,0.,24.0,0.,24.0
1979-07-26 20:10:33.610 ,2,1,0.,24.0,0.,24.0,1.,24.0,0.,24.0
1979-07-26 20:10:57.610 ,2,0,0.,24.0,0.,24.0,2.,24.0,0.,24.0
1979-07-26 20:11:21.610 ,1,1,0.,24.0,0.,24.0,0.,24.0,0.,24.0
1979-07-26 20:11:45.610 ,1,0,0.,24.0,0.,24.0,0.,24.0,0.,24.0
1979-07-26 20:12:09.610 ,0,1,0.,24.0,0.,24.0,0.,24.0,0.,24.0
1979-07-26 20:12:33.610 ,0,0,0.,24.0,0.,24.0,0.,24.0,0.,24.0
1979-07-26 20:12:57.610 ,0,1,0.,24.0,0.,24.0,1.,24.0,0.,24.0
1979-07-26 20:13:21.610 ,0,0,0.,24.0,0.,24.0,1.,24.0,0.,24.0
1979-07-26 20:13:45.610 ,1,1,0.,24.0,0.,24.0,1.,24.0,0.,24.0
1979-07-26 20:14:09.610 ,1,0,1.,24.0,0.,24.0,0.,24.0,0.,24.0
1979-07-26 20:14:33.610 ,2,1,0.,24.0,1.,24.0,0.,24.0,0.,24.0
1979-07-26 20:14:57.610 ,2,0,0.,24.0,0.,24.0,2.,24.0,0.,24.0
1979-07-26 20:15:21.610 ,3,1,0.,24.0,0.,24.0,0.,24.0,0.,24.0
1979-07-26 20:15:45.610 ,3,0,0.,24.0,0.,24.0,0.,24.0,0.,24.0
1979-07-26 20:16:09.610 ,4,1,0.,24.0,0.,24.0,0.,24.0,0.,24.0
1979-07-26 20:16:33.610 ,4,0,1.,24.0,0.,24.0,1.,24.0,0.,24.0
1979-07-26 20:16:57.610 ,5,1,0.,24.0,0.,24.0,2.,24.0,0.,24.0
1979-07-26 20:17:21.610 ,5,0,0.,24.0,0.,24.0,0.,24.0,0.,24.0
1979-07-26 20:17:45.610 ,6,1,0.,24.0,0.,24.0,2.,24.0,0.,24.0
1979-07-26 20:18:09.610 ,6,0,0.,24.0,0.,24.0,0.,24.0,0.,24.0
1979-07-26 20:18:33.610 ,7,0,8.,24.0,0.,24.0,2.,24.0,0.,24.0
1979-07-26 20:18:57.610 ,7,0,27.,24.0,0.,24.0,1.,24.0,0.,24.0
1979-07-26 20:19:21.610 ,5,1,19.,24.0,1.,24.0,0.,24.0,0.,24.0
1979-07-26 20:19:45.610 ,1,1,0.,24.0,0.,24.0,0.,24.0,0.,24.0
1979-07-26 20:20:09.610 ,2,1,0.,24.0,0.,24.0,0.,24.0,0.,24.0
1979-07-26 20:20:33.610 ,6,1,0.,24.0,0.,24.0,1.,24.0,0.,24.0
1979-07-26 20:20:57.610 ,5,1,16.,24.0,0.,24.0,1.,24.0,0.,24.0
1979-07-26 20:21:21.610 ,1,1,0.,24.0,0.,24.0,0.,24.0,0.,24.0
1979-07-26 20:21:45.610 ,2,1,0.,24.0,0.,24.0,1.,24.0,0.,24.0
1979-07-26 20:22:09.610 ,6,1,0.,24.0,0.,24.0,2.,24.0,0.,24.0
1979-07-26 20:22:33.610 ,5,1,13.,24.0,0.,24.0,1.,24.0,0.,24.0
1979-07-26 20:22:57.610 ,1,1,0.,24.0,0.,24.0,1.,24.0,0.,24.0
1979-07-26 20:23:21.610 ,2,1,0.,24.0,0.,24.0,0.,24.0,0.,24.0
1979-07-26 20:23:45.610 ,6,1,0.,24.0,0.,24.0,1.,24.0,0.,24.0
1979-07-26 20:24:09.610 ,5,1,15.,24.0,0.,24.0,1.,24.0,0.,24.0
1979-07-26 20:24:33.610 ,1,1,0.,24.0,0.,24.0,1.,24.0,0.,24.0
1979-07-26 20:24:57.610 ,2,1,1.,24.0,0.,24.0,2.,24.0,0.,24.0
1979-07-26 20:25:21.610 ,6,1,0.,24.0,0.,24.0,0.,24.0,0.,24.0
1979-07-26 20:25:45.610 ,5,1,19.,24.0,0.,24.0,0.,24.0,0.,24.0
1979-07-26 20:26:09.610 ,1,1,0.,24.0,0.,24.0,0.,24.0,0.,24.0
1979-07-26 20:26:33.610 ,2,1,0.,24.0,0.,24.0,2.,24.0,0.,24.0
1979-07-26 20:26:57.610 ,6,1,0.,24.0,0.,24.0,1.,24.0,0.,24.0
1979-07-26 20:27:21.610 ,5,1,17.,24.0,0.,24.0,1.,24.0,0.,24.0
1979-07-26 20:27:45.610 ,1,1,0.,24.0,0.,24.0,1.,24.0,0.,24.0
1979-07-26 20:28:09.610 ,2,1,0.,24.0,0.,24.0,1.,24.0,0.,24.0
1979-07-26 20:28:33.610 ,6,1,0.,24.0,0.,24.0,0.,24.0,0.,24.0
1979-07-26 20:28:57.610 ,5,1,16.,24.0,0.,24.0,0.,24.0,0.,24.0
1979-07-26 20:29:21.610 ,1,1,0.,24.0,0.,24.0,1.,24.0,0.,24.0
1979-07-26 20:29:45.610 ,0,0,1.,24.0,0.,24.0,0.,24.0,0.,24.0
1979-07-26 20:30:09.610 ,0,0,0.,24.0,0.,24.0,3.,24.0,0.,24.0
1979-07-26 20:30:33.610 ,5,1,13.,24.0,0.,24.0,0.,24.0,0.,24.0
1979-07-26 20:30:57.610 ,5,0,0.,24.0,0.,24.0,0.,24.0,0.,24.0
1979-07-26 20:31:21.610 ,4,1,0.,24.0,0.,24.0,1.,24.0,0.,24.0
1979-07-26 20:31:45.610 ,4,0,0.,24.0,0.,24.0,0.,24.0,0.,24.0
1979-07-26 20:32:09.610 ,3,1,0.,24.0,0.,24.0,0.,24.0,0.,24.0
1979-07-26 20:32:33.610 ,3,0,0.,24.0,0.,24.0,0.,24.0,0.,24.0
1979-07-26 20:32:57.610 ,2,1,0.,24.0,0.,24.0,1.,24.0,0.,24.0
1979-07-26 20:33:21.610 ,2,0,0.,24.0,0.,24.0,0.,24.0,0.,24.0
1979-07-26 20:33:45.610 ,1,1,1.,24.0,0.,24.0,2.,24.0,0.,24.0
1979-07-26 20:34:09.610 ,1,0,0.,24.0,0.,24.0,0.,24.0,0.,24.0
1979-07-26 20:34:33.610 ,0,1,0.,24.0,0.,24.0,0.,24.0,0.,24.0